Overview Statistics Trail Chart Weather Telemetry Raw packets
 

This is the latest recevied weather packets stored in our database for station/object XE2RCS-1. If no packets are shown the sender has not sent any weather packets the latest 10 day(s).

<< 1 2 3 4 >>
Time Temp. Humidity Pressure Rain* Wind** Luminosity Snow
1788678781 18.89° C 72% 1019 hPa 0 mm - - -
1788678181 18.89° C 72% 1019 hPa 0 mm - - -
1788677580 18.89° C 72% 1017 hPa 0 mm - - -
1788676980 18.89° C 72% 1017 hPa 0 mm - - -
1788676379 18.89° C 72% 1017 hPa 0 mm - - -
1788675779 18.89° C 71% 1018 hPa 0 mm - - -
1788675178 18.89° C 71% 1015 hPa 0 mm - - -
1788674577 18.89° C 72% 1015 hPa 0 mm - - -
1788673977 18.89° C 72% 1015 hPa 0 mm - - -
1788673376 18.89° C 73% 1016 hPa 0 mm - - -
1788672775 18.89° C 73% 1015 hPa 0 mm - - -
1788672175 18.89° C 72% 1019 hPa 0 mm - - -
1788671574 18.89° C 72% 1016 hPa 0 mm - - -
1788670973 18.89° C 72% 1016 hPa 0 mm - - -
1788670373 19.44° C 72% 1016 hPa 0 mm - - -
1788669772 19.44° C 72% 1016 hPa 0 mm - - -
1788669172 19.44° C 74% 1016 hPa 0 mm - - -
1788668571 19.44° C 74% 1017 hPa 0 mm - - -
1788667970 19.44° C 74% 1017 hPa 0 mm - - -
1788667370 20° C 74% 1017 hPa 0 mm - - -
1788666769 20° C 73% 1017 hPa 0 mm - - -
1788666168 20° C 82% 1017 hPa 0 mm - - -
1788665568 20° C 82% 1017 hPa 0 mm - - -
1788664967 20° C 81% 1019 hPa 0 mm - - -
1788664367 20° C 79% 1019 hPa 0 mm - - -

* Rain latest hour (hover to see other rain measurements)
** Current wind speed in m/s (hover to see current wind gust speed)